| time (UTC) | temp C | wind direction | speed KPH | gust KPH | rain 1hr cm | rain 24hr cm | rain mn cm | humidity % | barometer mb |
| 20260504080408 | 9 | 177 | 6.4 | 14.5 | 0.00 | 0.00 | 0.00 | 63 | 1009.9 |
| 20260504070226 | 9 | 271 | 6.4 | 17.7 | 0.00 | 0.00 | 0.00 | 61 | 1010.1 |
| 20260504050224 | 10 | 173 | 6.4 | 14.5 | 0.00 | 0.00 | 0.00 | 60 | 1010.4 |
| 20260504044727 | 10 | 175 | 4.8 | 16.1 | 0.00 | 0.00 | 0.00 | 61 | 1010.5 |
| 20260504043225 | 10 | 192 | 4.8 | 16.1 | 0.00 | 0.00 | 0.00 | 60 | 1010.6 |
| 20260504041726 | 10 | 33 | 6.4 | 16.1 | 0.00 | 0.00 | 0.00 | 60 | 1010.6 |
| 20260504040225 | 10 | 271 | 6.4 | 17.7 | 0.00 | 0.00 | 0.00 | 60 | 1010.6 |
| 20260504034726 | 10 | 192 | 4.8 | 12.9 | 0.00 | 0.00 | 0.00 | 62 | 1010.6 |
| 20260504033226 | 10 | 185 | 4.8 | 14.5 | 0.00 | 0.00 | 0.00 | 63 | 1010.6 |
| 20260504031725 | 10 | 246 | 6.4 | 19.3 | 0.00 | 0.00 | 0.00 | 63 | 1010.9 |
| 20260504030226 | 10 | 270 | 4.8 | 14.5 | 0.00 | 0.00 | 0.00 | 64 | 1010.9 |
| 20260504024727 | 10 | 167 | 3.2 | 11.3 | 0.00 | 0.00 | 0.00 | 65 | 1011.1 |
| 20260504023209 | 10 | 273 | 6.4 | 14.5 | 0.00 | 0.00 | 0.00 | 65 | 1011.3 |
| 20260504021706 | 10 | 265 | 11.3 | 25.7 | 0.00 | 0.00 | 0.00 | 66 | 1011.5 |
| 20260504020202 | 9 | 355 | 16.1 | 41.8 | 0.00 | 0.00 | 0.00 | 69 | 1011.9 |
| 20260504014702 | 10 | 305 | 20.9 | 41.8 | 0.00 | 0.00 | 0.00 | 62 | 1011.9 |
| 20260504014538 | 10 | 262 | 8.0 | 20.9 | 0.00 | 0.00 | 0.00 | 58 | 1011.4 |
| 20260504012403 | 11 | 259 | 14.5 | 32.2 | 0.00 | 0.00 | 0.00 | 58 | 1011.2 |
| 20260504010202 | 11 | 280 | 14.5 | 30.6 | 0.00 | 0.00 | 0.00 | 59 | 1011.2 |
| 20260504004700 | 11 | 297 | 8.0 | 22.5 | 0.00 | 0.00 | 0.00 | 58 | 1011.2 |
| 20260504004550 | 10 | 278 | 4.8 | 12.9 | 0.00 | 0.00 | 0.00 | 58 | 1010.9 |
| 20260504001702 | 10 | 238 | 6.4 | 17.7 | 0.00 | 0.00 | 0.00 | 59 | 1010.6 |
| 20260504000200 | 10 | 203 | 6.4 | 17.7 | 0.00 | 0.00 | 0.00 | 61 | 1010.5 |
| 20260503235411 | 10 | 180 | 8.0 | 27.4 | 0.00 | 0.00 | 0.00 | 61 | 1011.0 |
| 20260503233159 | 10 | 286 | 12.9 | 41.8 | 0.00 | 0.00 | 0.00 | 62 | 1011.2 |
| 20260503231659 | 10 | 311 | 14.5 | 22.5 | 0.00 | 0.00 | 0.00 | 60 | 1011.4 |
| 20260503230013 | 11 | 262 | 4.8 | 11.3 | 0.00 | 0.00 | 0.00 | 57 | 1010.8 |
| 20260503224512 | 11 | 294 | 8.0 | 17.7 | 0.00 | 0.00 | 0.00 | 56 | 1010.6 |
| 20260503222954 | 11 | 310 | 9.7 | 20.9 | 0.00 | 0.00 | 0.00 | 54 | 1010.6 |
| 20260503221455 | 11 | 188 | 11.3 | 20.9 | 0.00 | 0.00 | 0.00 | 55 | 1010.7 |
| 20260503215954 | 11 | 320 | 11.3 | 22.5 | 0.00 | 0.00 | 0.00 | 54 | 1010.7 |
| 20260503215155 | 11 | 288 | 11.3 | 29.0 | 0.00 | 0.00 | 0.00 | 54 | 1010.9 |
| 20260503212953 | 11 | 292 | 11.3 | 29.0 | 0.00 | 0.00 | 0.00 | 56 | 1010.8 |
| 20260503211454 | 11 | 277 | 11.3 | 20.9 | 0.00 | 0.00 | 0.00 | 56 | 1010.8 |
| 20260503205954 | 10 | 307 | 12.9 | 24.1 | 0.00 | 0.00 | 0.00 | 55 | 1010.9 |
| 20260503204453 | 10 | 296 | 14.5 | 25.7 | 0.00 | 0.00 | 0.00 | 56 | 1011.0 |
| 20260503202951 | 10 | 304 | 16.1 | 30.6 | 0.00 | 0.00 | 0.00 | 55 | 1011.0 |
| 20260503201453 | 10 | 262 | 17.7 | 32.2 | 0.00 | 0.00 | 0.00 | 56 | 1011.1 |
| 20260503195949 | 10 | 298 | 17.7 | 33.8 | 0.00 | 0.00 | 0.00 | 59 | 1011.4 |
| 20260503195150 | 10 | 289 | 11.3 | 24.1 | 0.00 | 0.00 | 0.00 | 60 | 1011.3 |
| 20260503193655 | 10 | 280 | 12.9 | 22.5 | 0.00 | 0.00 | 0.00 | 59 | 1011.5 |
| 20260503191451 | 9 | 271 | 12.9 | 25.7 | 0.00 | 0.00 | 0.00 | 59 | 1011.7 |
| 20260503185948 | 10 | 225 | 14.5 | 25.7 | 0.00 | 0.00 | 0.00 | 58 | 1011.8 |
| 20260503185158 | 10 | 279 | 12.9 | 27.4 | 0.00 | 0.00 | 0.00 | 57 | 1012.1 |
| 20260503182949 | 10 | 294 | 14.5 | 25.7 | 0.00 | 0.00 | 0.00 | 59 | 1012.2 |
| 20260503181451 | 9 | 306 | 17.7 | 30.6 | 0.00 | 0.00 | 0.00 | 58 | 1012.3 |
| 20260503175952 | 9 | 289 | 12.9 | 27.4 | 0.00 | 0.00 | 0.00 | 59 | 1012.4 |
| 20260503174453 | 9 | 290 | 11.3 | 29.0 | 0.00 | 0.00 | 0.00 | 55 | 1012.6 |
| 20260503173704 | 8 | 309 | 11.3 | 29.0 | 0.00 | 0.00 | 0.00 | 57 | 1012.7 |
| 20260503171454 | 8 | 311 | 12.9 | 20.9 | 0.00 | 0.00 | 0.00 | 56 | 1012.8 |
| 20260503131331 | 4 | 293 | 11.3 | 22.5 | 0.00 | 0.00 | 0.00 | 76 | 1014.4 |